SCP
0 0 0 0 0 0 0 0 0 0 0 0 0 0 0 0 0 0 -0 -0 0 0 0 0 0 0 -0 -0 -0 -0 -0 -0 0 0 0 0 0 0 0 0 0 0 0
0 0 0 0 0 0 0 0 0 0 0 0 0 0 0 0 0 0 0 -0 0 0 0 0 0 0 -0 -0 -0 0 0 0 0 0 0 0 0 0 0 0 0 0 0
0 0 0 0 0 0 0 0 0 0 0 0 0 0 0 0 0 0 0 0 0 0 0 0 0 0 0 0 0 0 0 0 0 0 0 -0 -0 0 0 0 0 0 0
0 0 0 0 0 0 0 0 0 0 0 0 0 0 0 0 0 0 0 0 0 0 0 0 0 0 0 0 0 0 0 0 0 0 0 -0 -0 0 0 0 0 0 0
0 0 0 0 0 0 0 0 0 0 0 0 0 0 0 0 0 0 0 0 0 0 0 0 0 0 0 0 0 0 0 0 0 0 0 -0 0 0 0 0 0 0 0
0 0 0 0 0 0 0 0 0 0 0 0 0 0 0 0 0 0 0 0 0 0 0 0 0 0 0 0 0 0 0 0 0 0 0 0 0 0 0 0 0 0 0
0 0 0 0 0 0 0 0 0 0 0 0 0 0 0 0 0 0 0 0 0 0 0 0 0 0 0 0 0 0 0 0 0 0 0 0 0 0 0 0 0 0 0
0 0 0 0 0 0 0 0 0 0 0 0 0 0 0 0 0 0 0 0 0 0 0 0 0 0 0 0 0 0 0 0 0 0 0 0 0 0 0 0 0 0 0
0 0 0 0 0 0 0 0 0 0 0 0 0 0 0 0 0 0 0 0 0 0 0 0 0 0 0 0 0 0 0 0 0 0 0 0 0 0 0 0 0 0 0
0 0 0 0 0 0 0 0 0 0 0 0 0 0 0 0 0 0 0 0 0 0 0 0 0 0 0 0 0 0 0 0 0 0 0 0 0 0 0 0 0 0 0
1 0 0 0 0 0 0 0 0 0 0 0 0 0 0 0 0 0 0 0 0 0 0 0 0 0 0 0 0 0 0 0 0 0 0 0 0 0 0 0 0 0 0
1 1 0 0 0 0 0 0 0 0 0 0 0 0 0 0 0 0 0 0 0 0 0 0 0 0 0 0 0 0 0 0 0 0 0 0 0 0 0 0 0 0 0
1 1 0 0 0 0 0 0 0 0 0 0 0 0 0 0 0 0 0 0 0 0 0 0 0 0 0 0 0 0 0 0 0 0 0 0 0 0 0 0 0 0 0
1 1 1 1 0 1 1 0 0 0 0 0 0 0 0 0 0 0 0 0 0 0 0 0 0 0 0 0 0 0 0 0 0 0 0 0 0 0 0 0 0 0 0
0 0 0 1 1 1 1 0 0 0 0 0 0 0 0 0 0 0 0 0 0 0 0 0 0 0 0 0 0 0 0 0 0 0 0 0 0 0 0 0 0 0 0
0 0 0 0 0 0 0 0 0 0 0 0 0 0 0 0 0 0 0 0 0 0 0 0 0 0 0 0 0 0 0 0 0 0 0 0 0 0 0 0 0 0 0
0 0 0 0 0 0 0 0 0 0 0 0 0 0 0 0 0 0 0 0 0 0 0 0 0 0 0 0 0 0 0 0 0 0 0 0 0 0 0 0 0 0 0
0 0 0 0 0 0 0 0 0 0 0 0 0 0 0 0 0 0 0 0 0 0 0 0 0 0 0 0 0 0 0 0 0 0 0 0 0 0 0 0 0 0 0
0 0 0 0 0 0 0 0 0 0 0 0 0 0 0 0 0 0 0 0 0 0 0 0 0 0 0 0 0 0 0 0 0 0 0 0 0 0 0 0 0 0 0
0 0 0 0 0 0 0 0 0 0 0 0 0 0 0 0 0 0 0 0 0 0 0 0 0 0 0 0 0 0 0 0 0 0 0 0 0 0 0 0 0 0 0
0 0 0 0 0 0 0 0 0 0 0 0 0 0 0 0 0 0 0 0 0 0 0 0 0 0 0 0 0 0 0 0 0 0 0 0 0 0 0 0 1 1 1
0 0 0 0 0 0 0 0 0 0 0 0 0 0 0 0 0 0 0 0 0 0 0 0 0 0 0 0 0 0 0 0 0 0 0 0 0 0 0 0 1 1 1
0 0 0 0 0 0 0 0 0 0 0 0 0 0 0 0 0 0 0 0 0 0 0 0 0 0 0 0 0 0 0 0 0 0 0 0 0 0 0 0 0 1 1
0 0 0 0 0 0 0 0 0 0 0 0 0 0 0 0 0 0 0 0 0 0 0 0 0 0 0 0 0 0 0 0 0 0 0 0 0 0 0 0 0 0 1
0 0 0 0 0 0 0 0 0 0 0 0 0 0 0 0 0 0 0 0 0 0 0 0 0 0 0 0 0 0 0 0 0 0 0 0 0 0 0 0 0 0 0
0 0 0 0 0 0 0 0 0 0 0 0 0 0 0 0 0 0 0 0 0 0 0 0 0 0 0 0 0 0 0 0 0 0 0 0 0 0 0 0 0 0 0
Wind_Speed
11 14 15 12 12 13 14 14 13 14 14 14 14 13 12 12 11 10 10 9 9 9 10 10 10 9 10 10 10 10 10 11 11 12 12 12 12 13 13 13 13 14 16
13 15 15 12 12 13 13 13 13 13 13 13 13 12 12 11 10 10 9 9 9 9 9 9 9 10 10 10 10 10 10 11 11 12 13 13 12 11 11 9 9 13 15
14 15 15 13 13 13 13 13 13 13 13 13 12 12 11 10 10 9 9 8 8 9 9 9 9 9 10 10 10 10 10 11 11 10 10 11 12 11 11 12 15 15 14
14 14 14 14 13 13 13 13 13 13 12 12 12 11 11 10 9 8 8 8 8 8 8 8 9 9 9 9 9 9 10 10 9 8 7 9 11 12 12 13 14 14 14
13 13 14 14 13 13 13 13 12 12 12 11 11 10 10 9 8 8 7 7 7 8 8 8 8 8 8 8 9 9 9 9 6 5 7 8 10 11 12 12 13 13 13
13 14 15 14 13 13 12 12 12 12 11 11 10 9 9 8 8 7 7 6 6 7 7 7 7 8 7 7 7 7 7 7 8 6 7 8 10 11 11 12 13 13 12
12 13 15 13 13 12 12 11 11 11 11 10 9 8 8 7 7 7 6 6 6 6 6 7 6 7 7 6 6 6 6 4 3 6 6 7 10 10 11 12 12 12 12
11 12 14 13 12 11 11 11 10 10 9 9 8 7 7 6 6 6 6 5 5 5 5 6 6 6 6 5 5 5 5 6 5 6 6 8 11 9 10 11 11 11 11
10 11 12 13 12 11 10 10 9 9 8 8 7 6 6 6 5 5 5 5 5 5 5 4 5 6 5 5 4 4 4 5 4 4 6 7 11 9 10 10 11 11 11
8 9 10 10 9 10 10 10 9 8 8 7 7 6 5 6 6 5 6 5 4 5 5 4 4 5 5 4 4 4 4 7 5 6 4 9 11 10 10 10 10 11 10
8 6 7 9 8 7 8 9 9 9 7 7 7 6 6 6 6 6 4 5 4 4 5 5 4 4 5 6 5 4 6 6 4 3 4 12 11 10 10 10 10 10 10
8 7 5 6 6 6 5 6 5 5 6 4 4 5 4 2 2 2 7 4 4 4 5 5 4 6 8 7 9 8 6 6 3 4 6 12 10 10 10 11 11 10 10
8 7 6 4 3 4 3 4 2 2 3 3 3 3 2 2 2 2 2 4 4 6 5 6 7 6 5 3 3 5 4 4 2 3 8 12 10 11 12 11 11 11 11
7 7 6 5 3 2 2 3 3 2 2 2 3 2 2 1 0 0 1 1 2 2 2 3 3 3 4 4 5 5 5 4 3 2 6 12 10 11 12 12 12 12 12
8 7 6 5 4 3 2 1 2 2 2 2 1 1 1 1 1 1 1 1 2 2 3 3 4 4 4 5 5 6 6 6 5 5 5 11 11 11 12 12 13 13 13
7 7 7 6 5 3 2 2 2 2 2 2 2 2 0 0 0 1 1 1 2 2 2 3 4 4 4 4 5 5 6 6 6 6 5 8 12 11 12 14 14 14 14
8 7 7 6 5 4 3 1 2 2 2 2 2 2 1 0 1 0 0 1 1 1 2 3 4 3 4 5 5 5 5 6 5 5 5 4 7 12 13 14 15 14 14
7 7 6 5 6 5 3 2 2 2 2 2 2 2 2 2 1 0 0 1 1 1 1 2 3 3 3 3 3 4 4 4 6 6 6 6 5 6 11 14 14 13 15
7 7 6 6 5 5 4 3 4 4 3 3 3 2 3 3 1 1 1 2 1 1 1 2 1 2 2 3 3 4 4 4 5 6 6 6 6 6 6 10 13 13 15
7 7 6 6 6 5 4 4 4 4 3 3 3 4 3 3 2 1 2 2 2 1 1 1 1 1 2 2 4 3 3 3 4 5 6 6 6 8 8 8 8 10 15
7 7 6 6 5 3 3 3 3 4 3 3 4 4 4 3 3 1 2 2 1 2 2 1 1 2 2 2 3 3 4 4 3 3 4 4 6 7 7 7 7 6 8
7 7 6 6 5 3 3 3 2 3 2 3 3 4 3 3 2 2 2 1 1 1 1 2 2 2 1 1 3 4 3 4 4 2 2 3 4 4 6 7 7 7 7
8 7 5 5 5 4 4 4 4 3 3 3 3 3 3 3 3 3 2 2 1 1 2 2 2 2 2 1 2 4 4 2 1 3 2 1 2 2 3 3 6 6 8
9 8 7 6 5 5 4 3 3 2 2 3 1 3 3 3 3 3 2 2 2 2 2 1 2 2 2 2 0 1 3 4 4 1 2 2 2 2 2 3 3 4 5
9 8 7 7 6 5 4 4 3 3 3 3 3 4 2 3 2 2 2 2 2 2 3 3 2 3 3 3 3 2 1 2 4 4 3 2 2 2 2 2 2 3 4
10 8 8 7 6 6 5 4 3 4 3 3 3 3 2 3 2 2 2 1 1 2 2 2 2 1 2 3 4 3 3 3 3 3 4 4 3 2 2 2 3 2 2
Wind_Direction
149 138 137 142 139 137 136 136 136 136 136 136 134 133 130 128 124 119 113 107 102 98 96 96 96 99 101 101 102 104 106 108 110 111 111 111 113 114 119 127 133 114 115
144 138 140 143 141 139 136 134 133 134 135 136 136 135 134 131 127 124 118 112 106 101 98 98 96 97 100 100 102 104 109 111 113 116 120 118 114 115 118 120 105 110 121
143 139 146 144 143 140 136 134 134 134 135 136 136 136 136 134 130 127 123 116 110 106 101 99 97 97 99 100 102 104 107 110 115 129 150 131 118 115 112 105 106 118 120
143 144 146 142 143 141 138 137 136 136 137 137 138 138 138 136 134 130 125 119 114 111 107 104 101 100 101 101 103 105 107 112 125 170 155 122 121 116 118 117 119 121 122
145 142 135 146 144 141 140 139 138 138 137 137 137 138 138 135 132 128 124 122 118 115 113 110 107 105 105 106 108 109 111 118 153 201 105 110 111 121 124 124 124 124 124
147 141 138 149 144 142 141 141 141 141 141 141 140 139 137 135 133 130 126 123 121 120 118 115 113 112 112 111 114 117 120 144 199 123 119 125 120 130 132 130 129 128 127
144 140 139 147 146 145 143 143 143 144 143 142 142 141 140 140 140 137 134 129 126 126 124 121 119 119 121 120 119 124 135 196 204 123 125 116 113 131 135 133 131 131 130
143 139 135 142 146 147 146 144 143 143 143 144 143 143 143 142 141 138 137 137 138 134 129 128 127 129 129 128 128 134 158 230 174 138 136 118 117 139 138 137 137 137 136
139 136 142 149 150 150 147 147 146 143 140 139 142 147 150 151 149 148 142 143 144 143 145 144 142 141 141 141 140 145 174 257 249 142 148 123 133 148 147 146 145 143 142
137 137 144 147 151 158 155 151 149 146 144 143 145 152 157 164 168 167 175 158 163 162 164 163 161 154 152 155 155 161 188 233 220 165 153 127 144 157 157 155 154 151 149
136 135 146 148 152 160 157 147 157 154 149 159 162 159 190 196 177 179 160 146 179 183 180 178 177 171 180 175 175 183 216 232 190 170 134 124 156 167 168 165 163 161 159
142 142 150 141 147 159 151 144 162 163 151 172 147 167 196 181 197 184 122 158 194 196 193 185 187 196 219 195 175 197 224 226 187 176 132 139 167 179 179 175 173 171 169
139 136 130 129 139 144 135 142 145 143 136 150 146 163 175 188 186 200 162 174 193 203 205 180 202 218 220 223 221 216 236 243 210 198 138 155 176 187 188 184 183 180 178
129 128 119 117 126 121 122 130 149 147 149 156 143 188 173 205 227 140 236 250 231 213 202 215 233 227 238 233 236 246 236 247 237 208 145 164 184 194 194 193 190 187 186
130 127 123 120 116 117 122 148 134 142 146 129 128 140 190 206 202 182 203 261 270 256 220 220 231 224 226 230 239 234 242 245 250 238 159 169 189 201 198 198 200 196 193
125 126 125 122 119 116 117 122 117 128 115 118 122 106 125 229 182 202 203 237 275 281 277 255 246 237 236 236 237 236 243 243 239 239 223 175 189 201 203 201 205 205 199
126 120 122 123 112 107 103 126 123 116 115 104 91 81 72 49 89 240 239 231 329 281 256 252 253 240 233 228 233 235 238 247 244 237 237 213 196 198 205 208 207 208 204
119 114 112 111 105 100 93 90 87 90 101 97 94 91 82 69 70 264 335 25 337 278 260 246 252 247 244 245 241 243 238 240 242 235 234 226 225 214 201 208 210 206 207
114 108 105 102 105 103 106 107 103 101 93 97 94 87 90 89 88 79 42 40 295 285 279 278 269 277 258 253 243 232 237 236 242 241 239 237 232 231 215 197 208 210 209
115 113 113 115 104 118 122 115 111 106 108 101 92 83 84 92 85 65 98 46 324 311 322 321 287 283 281 274 270 258 244 239 236 236 240 233 225 228 222 212 204 211 211
126 123 120 111 110 126 125 129 126 120 115 104 95 90 94 90 93 65 66 88 359 48 11 331 287 233 261 289 263 243 218 218 227 230 233 244 232 230 228 218 212 214 207
138 130 131 130 124 136 105 98 99 103 115 97 92 91 86 85 80 100 53 57 58 72 60 16 342 313 339 331 298 276 239 194 194 205 221 228 245 240 229 220 216 212 220
148 144 131 126 126 113 121 134 137 146 163 145 131 116 88 83 76 49 60 27 20 348 58 18 345 338 330 333 337 308 293 279 175 161 190 206 240 249 245 241 228 221 222
157 149 139 138 132 127 147 140 161 166 138 108 118 101 109 95 83 78 62 52 8 20 44 331 41 326 305 295 236 322 326 339 304 247 188 177 195 234 244 254 247 230 230
162 155 147 142 139 136 135 137 167 143 127 133 130 115 133 111 96 82 73 61 33 20 30 10 7 334 318 317 318 309 286 254 266 284 282 264 233 230 233 246 246 248 242
168 162 154 148 145 146 148 138 141 122 130 135 144 137 161 131 120 93 86 54 6 21 26 359 337 329 340 337 318 311 300 296 296 289 280 271 269 265 272 283 263 244 242